Regional Weather Roundup
Issued by NWS

Home | Current Version | Previous Version | Text Only | Print | Product List | Glossary Off
Versions: 1 2 3 4 5 6 7 8 9 10 11 12 13 14 15 16 17 18 19 20 21 22 23 24 25 26 27 28 29 30 31 32 33 34 35 36 37 38 39 40 41 42 43 44 45 46 47 48 49 50

000
ASUS43 KMKX 040321
RWRWI

WISCONSIN REGIONAL WEATHER ROUNDUP
NATIONAL WEATHER SERVICE MILWAUKEE/SULLIVAN WI
1000 PM CDT SUN MAY 03 2015

NOTE: "FAIR" INDICATES FEW OR NO CLOUDS BELOW 12,000 FEET WITH NO
SIGNIFICANT WEATHER AND/OR OBSTRUCTIONS TO VISIBILITY.

WIZ001-002-006>008-014>016-023>028-040400-
NORTHWEST WISCONSIN

CITY           SKY/WX    TMP DP  RH WIND       PRES   REMARKS
SUPERIOR ARPT  CLEAR     47  44  88 SW5       29.89R
ASHLAND        MOCLDY    51  49  92 SW5       29.88R
HAYWARD        MOCLDY    55  47  74 CALM      29.88R
SIREN          PTCLDY    53  44  71 CALM      29.90S
CUMBERLAND     MOCLDY    55  43  62 CALM      29.90R
RICE LAKE      MOCLDY    57  50  77 CALM      29.91R
CHETEK         MOCLDY    55  54  98 N3        29.90R
LADYSMITH      CLOUDY    58  50  76 NE5       29.90S
EAU CLAIRE     CLOUDY    57  52  83 N5        29.88R
MENOMONIE      CLOUDY    60  54  80 N5        29.90R
NEW RICHMOND   CLOUDY    58  46  63 E3        29.90R
OSCEOLA        CLOUDY    59  47  62 E3        29.92R
$$

WIZ003>005-009-010-017-018-040400-
NORTH CENTRAL WISCONSIN

CITY           SKY/WX    TMP DP  RH WIND       PRES   REMARKS
MANITOWISH WTR CLOUDY    55  47  74 CALM      29.88F
ARBOR VITAE    DRIZZLE   57  53  88 CALM      29.89F
WOODRUFF       DRIZZLE   57  53  88 CALM      29.89F
RHINELANDER    LGT RAIN  56  48  74 N7        29.92R
EAGLE RIVER    LGT RAIN  56  49  79 CALM      29.90F
LAND O LAKES   LGT RAIN  56  47  72 NW3       29.92S
PHILLIPS       PTCLDY    54  53  95 CALM      29.88F
TOMAHAWK       RAIN      56  51  84 CALM      29.91F
MEDFORD        HVY RAIN  57  54  89 E3        29.91F
MERRILL        RAIN      59  55  88 N12       29.90F
$$

WIZ029-030-035-036-043>047-040400-
CENTRAL WISCONSIN

CITY           SKY/WX    TMP DP  RH WIND       PRES   REMARKS
WAUSAU         TSTM      63  54  72 VRB6      29.92R
MOSINEE        TSTM      64  54  68 W13G23    29.96R
MARSHFIELD     HVY RAIN  59 N/A N/A N16       29.92S
STEVENS POINT  TSTM      61  56  82 NW9G20    29.91R
WAUPACA        CLOUDY    67  55  64 S6        29.86R
WAUTOMA        CLOUDY    67  55  65 S5        29.87R
WISC RAPIDS    TSTM      60  56  86 N17G25    29.91R
CAMP DOUGLAS   TSTM      61  61 100 N16G24    29.91R
$$

WIZ011>013-019>022-031-037>040-048>050-040400-
NORTHEAST WISCONSIN

CITY           SKY/WX    TMP DP  RH WIND       PRES   REMARKS
ANTIGO         LGT RAIN  58  55  91 E7        29.90R
SHAWANO        CLOUDY    71  55  56 NW13      29.89R
OCONTO         CLOUDY    69  55  60 N12       29.88R
STURGEON BAY   CLOUDY    68  52  56 SW14      29.88R
GREEN BAY      CLOUDY    67  54  63 S9        29.87R
MANITOWOC      PTCLDY    55  49  80 E5        29.89R
APPLETON       PTCLDY    64  52  63 SW9       29.87R
CLINTONVILLE   CLOUDY    68  54  60 N15       29.89R
OSHKOSH        CLOUDY    65  53  65 SW10      29.87R
$$

WIZ032>034-041-042-053>061-040400-
SOUTHWEST WISCONSIN

CITY           SKY/WX    TMP DP  RH WIND       PRES   REMARKS
LA CROSSE      RAIN      62  58  86 N8        29.88R FOG
SPARTA         TSTM      60  58  92 N7        29.92R
VIROQUA        CLOUDY    60  53  75 NW10      29.89R VSB 1
BOSCOBEL       CLOUDY    69  59  70 CALM      29.86R
PRAIRIE DU CHI CLOUDY    69  58  66 SE6       29.84S
PLATTEVILLE    CLOUDY    64  59  86 SE7       29.88R
$$

WIZ056-057-062-063-064-067-068-040400-
SOUTH CENTRAL WISCONSIN

CITY           SKY/WX    TMP DP  RH WIND       PRES   REMARKS
REEDSBURG      CLOUDY    66  57  74 S5        29.86F
BARABOO/DELLS  NOT AVBL
LONE ROCK      CLOUDY    66  57  72 SE6       29.86R
MINERAL POINT  MOCLDY    64  59  82 SE12      29.88S
MADISON        CLOUDY    64  55  72 S8        29.88R
MIDDLETON      MOCLDY    65  54  66 S8        29.89R
WATERTOWN      MOCLDY    62  56  81 S5        29.89R
MONROE         MOCLDY    61  55  82 S7        29.90R
JANESVILLE     PTCLDY    63  54  72 S8        29.89S
$$

WIZ051-052-058>065-066-070>072-040400-
SOUTHEAST WISCONSIN

CITY           SKY/WX    TMP DP  RH WIND       PRES   REMARKS
MILWAUKEE      PTCLDY    65  53  65 S15       29.89R
WAUKESHA       PTCLDY    61  54  77 S8        29.91S
MILWAUKEE/TIMM CLEAR     64  52  63 S13       29.90R
RACINE         PTCLDY    64  54  69 S12       29.92R
BURLINGTON     PTCLDY    58  55  88 S6        29.91R
KENOSHA        CLEAR     62  57  83 S10       29.91R
FOND DU LAC    MOCLDY    64  52  64 SW9       29.88R
SHEBOYGAN      PTCLDY    62  52  69 SW9       29.88R
WEST BEND      PTCLDY    63  52  67 SW10      29.89R
JUNEAU         MOCLDY    62  54  74 S8        29.90R
$$

LSZ147-162-040400-
LAKE SUPERIOR

STATION/POSITION TIME  TEMP    WIND        PRES    WAVE
                       AIR SEA DIR/SP/G            HT/PER
                 (UTC) (F)     (DEG/KT/KT) (MB)    (FT/S)
W MID LAKE BUOY  0250   46 35  310/  6/  8 1010.9R   1
DEVILS ISLAND    0300   48     260/ 13/ 14 1011.7R
PORT WING        0200   53     120/  1/  3 1011.2
SAXON HARBOR     0200   54      CALM  /  5 1010.2F
$$

LMZ867-665-643>646-040400-
LAKE MICHIGAN

STATION/POSITION TIME  TEMP    WIND        PRES    WAVE
                       AIR SEA DIR/SP/G            HT/PER
                 (UTC) (F)     (DEG/KT/KT) (MB)    (FT/S)
CHAMBERS ISLAND  0200   64     180/  8/ 16 1009.5R
NORTHPORT PIER   0300   56     290/  6/ 21 1011.5R
KEWAUNEE LAKESHO 0200   52     180/  9/ 11 1010.0R
SHEBOYGAN LAKESH 0300   53     180/ 15/ 16 1012.2R
PORT WASHINGTON  0240   52     180/  6/  7 1012.2R
ATWATER BUOY     0300   56     180/ 12/ 14 1013.3R
MILWAUKEE LAKESH 0300   65     200/ 16/ 18   N/A
KENOSHA   LAKESH 0300   53     180/  7/ 12 1012.9R
$$

TC  - TEMPERATURE IN CELSIUS
VSB - VISIBILITY IN STATUTE MILES
WCI - WIND CHILL INDEX
HX  - HEAT INDEX



USA.gov is the U.S. government's official web portal to all federal, state and local government web resources and services.